ITY3321 LIPX-EDDH

Flight info

Callsign ITY3321
Flight time 1h 27m
Altitude 18000
Route OTZOM Y480 UPXUF L612 ADOSA/N0435F360 DCT BORMI DCT BRENO DCT KONIN DCT EXITI DCT ABGUS DCT DIRBO/N0374F230 T902 RARUP RARUP3P
Aircraft A320/M-SDE3FGHIRWY/LB1

Departure

Time 2026-04-26 14:58
Airport Verona Villafranca Valerio Catullo Airport (LIPX)

Arrival

Time 2026-04-26 16:25
Airport Hamburg Helmut Schmidt Airport (EDDH)
Time Latitude Longitude Altitude Speed Heading
2026-04-26 14:32 45.40468 10.90629 237 ft 0 kts 135°
2026-04-26 14:50 45.40467 10.90631 237 ft 2 kts 135°
2026-04-26 14:51 45.40429 10.90653 237 ft 10 kts 189°
2026-04-26 14:51 45.40356 10.90566 237 ft 16 kts 227°
2026-04-26 14:51 45.40281 10.90460 237 ft 15 kts 223°
2026-04-26 14:51 45.40282 10.90347 237 ft 12 kts 312°
2026-04-26 14:52 45.40327 10.90253 237 ft 11 kts 282°
2026-04-26 14:52 45.40312 10.90127 237 ft 16 kts 253°
2026-04-26 14:52 45.40288 10.89987 238 ft 13 kts 268°
2026-04-26 14:52 45.40346 10.89869 238 ft 16 kts 317°
2026-04-26 14:53 45.40409 10.89747 237 ft 15 kts 268°
2026-04-26 14:53 45.40342 10.89629 237 ft 17 kts 225°
2026-04-26 14:53 45.40253 10.89499 237 ft 20 kts 226°
2026-04-26 14:53 45.40149 10.89349 237 ft 23 kts 225°
2026-04-26 14:54 45.40030 10.89178 237 ft 26 kts 225°
2026-04-26 14:54 45.39902 10.88992 237 ft 27 kts 225°
2026-04-26 14:54 45.39769 10.88797 237 ft 28 kts 226°
2026-04-26 14:54 45.39631 10.88593 237 ft 29 kts 225°
2026-04-26 14:55 45.39488 10.88383 237 ft 30 kts 226°
2026-04-26 14:55 45.39341 10.88170 237 ft 31 kts 225°
2026-04-26 14:55 45.39189 10.87951 238 ft 31 kts 225°
2026-04-26 14:55 45.39056 10.87756 238 ft 26 kts 226°
2026-04-26 14:56 45.38934 10.87578 238 ft 19 kts 226°
2026-04-26 14:56 45.38871 10.87503 238 ft 9 kts 194°
2026-04-26 14:56 45.38825 10.87537 238 ft 8 kts 137°
2026-04-26 14:56 45.38777 10.87603 239 ft 10 kts 135°
2026-04-26 14:57 45.38766 10.87682 239 ft 7 kts 64°
2026-04-26 14:57 45.38806 10.87741 239 ft 15 kts 45°
2026-04-26 14:57 45.39054 10.88106 238 ft 88 kts 46°
2026-04-26 14:57 45.39621 10.88926 240 ft 145 kts 45°
2026-04-26 14:58 45.40384 10.90062 595 ft 161 kts 47°
2026-04-26 14:58 45.41175 10.91207 1229 ft 163 kts 47°
2026-04-26 14:58 45.41987 10.92416 1685 ft 179 kts 48°
2026-04-26 14:58 45.42893 10.93788 2026 ft 202 kts 47°
2026-04-26 14:59 45.43916 10.95335 2353 ft 227 kts 47°
2026-04-26 14:59 45.45069 10.97058 2787 ft 252 kts 44°
2026-04-26 14:59 45.46614 10.98362 3483 ft 267 kts 18°
2026-04-26 14:59 45.47813 10.98796 4110 ft 270 kts 14°
2026-04-26 15:00 45.50242 10.99587 5402 ft 272 kts 14°
2026-04-26 15:00 45.52102 11.00172 6310 ft 275 kts 13°
2026-04-26 15:00 45.53983 11.00764 7192 ft 278 kts 13°
2026-04-26 15:00 45.55879 11.01360 8059 ft 280 kts 12°
2026-04-26 15:01 45.57793 11.01964 8934 ft 283 kts 12°
2026-04-26 15:01 45.59729 11.02578 9807 ft 285 kts 12°
2026-04-26 15:01 45.61695 11.03203 10411 ft 298 kts 12°
2026-04-26 15:01 45.63793 11.03867 10686 ft 320 kts 12°
2026-04-26 15:02 45.66009 11.04568 11221 ft 331 kts 12°
2026-04-26 15:02 45.68274 11.05289 11920 ft 336 kts 12°
2026-04-26 15:02 45.70578 11.06027 12642 ft 341 kts 11°
2026-04-26 15:02 45.72909 11.06777 13379 ft 345 kts 11°
2026-04-26 15:03 45.75271 11.07535 14078 ft 350 kts 12°
2026-04-26 15:03 45.77664 11.08304 14722 ft 354 kts 11°
2026-04-26 15:03 45.80086 11.09080 15364 ft 358 kts 11°
2026-04-26 15:03 45.82530 11.09862 16014 ft 361 kts 11°
2026-04-26 15:04 45.84995 11.10654 16653 ft 365 kts 11°
2026-04-26 15:04 45.87490 11.11458 17297 ft 369 kts 11°
2026-04-26 15:04 45.90007 11.12271 17892 ft 373 kts 11°
2026-04-26 15:04 45.92554 11.13092 18084 ft 374 kts 11°
2026-04-26 15:05 45.95065 11.13903 18123 ft 374 kts 11°
2026-04-26 15:05 45.96779 11.14458 18129 ft 374 kts 11°
2026-04-26 15:05 46.00137 11.15542 18149 ft 374 kts 10°
2026-04-26 15:05 46.02679 11.16358 18152 ft 373 kts 12°
2026-04-26 15:06 46.05231 11.17121 18160 ft 374 kts
2026-04-26 15:06 46.07792 11.17747 18174 ft 374 kts
2026-04-26 15:06 46.10369 11.18294 18180 ft 375 kts
2026-04-26 15:06 46.12954 11.18809 18191 ft 375 kts
2026-04-26 15:07 46.18137 11.19859 18214 ft 376 kts
2026-04-26 15:07 46.20726 11.20407 18226 ft 376 kts
2026-04-26 15:07 46.23314 11.20972 18240 ft 376 kts
2026-04-26 15:08 46.25867 11.21537 18245 ft 376 kts
2026-04-26 15:08 46.28452 11.22115 18246 ft 376 kts
2026-04-26 15:08 46.31043 11.22692 18248 ft 376 kts
2026-04-26 15:08 46.33627 11.23264 18244 ft 376 kts
2026-04-26 15:09 46.36213 11.23835 18241 ft 375 kts
2026-04-26 15:09 46.38798 11.24405 18231 ft 375 kts
2026-04-26 15:09 46.41384 11.24977 18010 ft 375 kts
2026-04-26 15:09 46.43969 11.25550 18008 ft 376 kts
2026-04-26 15:10 46.46558 11.26123 18006 ft 376 kts
2026-04-26 15:10 46.48283 11.26507 18261 ft 379 kts
2026-04-26 15:10 46.51789 11.27291 19049 ft 383 kts
2026-04-26 15:10 46.54427 11.27878 19624 ft 385 kts
2026-04-26 15:11 46.57103 11.28294 20181 ft 387 kts
2026-04-26 15:11 46.59801 11.28526 20750 ft 390 kts
2026-04-26 15:11 46.62523 11.28706 21314 ft 393 kts
2026-04-26 15:11 46.65240 11.28861 21882 ft 396 kts
2026-04-26 15:12 46.68005 11.29015 22433 ft 399 kts
2026-04-26 15:12 46.70794 11.29176 22998 ft 403 kts
2026-04-26 15:12 46.73603 11.29344 23522 ft 405 kts
2026-04-26 15:12 46.76438 11.29523 24023 ft 408 kts
2026-04-26 15:13 46.79288 11.29710 24484 ft 410 kts
2026-04-26 15:13 46.82149 11.29899 24950 ft 412 kts
2026-04-26 15:13 46.85029 11.30091 25381 ft 415 kts
2026-04-26 15:13 46.87887 11.30281 25785 ft 417 kts 360°
2026-04-26 15:14 46.90790 11.30472 26148 ft 419 kts 360°
2026-04-26 15:14 46.93712 11.30659 26560 ft 421 kts 360°
2026-04-26 15:14 46.96646 11.30848 26963 ft 423 kts 360°
2026-04-26 15:14 46.99592 11.31039 27352 ft 425 kts 360°
2026-04-26 15:15 47.02553 11.31237 27737 ft 427 kts 360°
2026-04-26 15:15 47.05526 11.31438 28115 ft 429 kts 360°
2026-04-26 15:15 47.08514 11.31640 28439 ft 431 kts 359°
2026-04-26 15:15 47.11521 11.31838 28816 ft 433 kts 359°
2026-04-26 15:16 47.14542 11.32035 29138 ft 435 kts 359°
2026-04-26 15:16 47.17576 11.32233 29467 ft 437 kts 359°
2026-04-26 15:16 47.20614 11.32430 29784 ft 438 kts 359°
2026-04-26 15:16 47.23668 11.32636 30135 ft 440 kts 359°
2026-04-26 15:17 47.26739 11.32844 30412 ft 442 kts 359°
2026-04-26 15:17 47.28786 11.32979 30584 ft 444 kts 359°
2026-04-26 15:17 47.32926 11.33251 30948 ft 447 kts 359°
2026-04-26 15:17 47.36003 11.33457 31213 ft 448 kts 359°
2026-04-26 15:18 47.39123 11.33669 31468 ft 449 kts 359°
2026-04-26 15:18 47.42247 11.33881 31783 ft 449 kts 359°
2026-04-26 15:18 47.45363 11.34091 32096 ft 448 kts 359°
2026-04-26 15:18 47.48477 11.34302 32414 ft 447 kts 359°
2026-04-26 15:19 47.51584 11.34511 32739 ft 446 kts 359°
2026-04-26 15:19 47.54683 11.34718 33069 ft 446 kts 358°
2026-04-26 15:19 47.57784 11.34924 33378 ft 446 kts 358°
2026-04-26 15:19 47.60886 11.35126 33682 ft 446 kts 358°
2026-04-26 15:20 47.63978 11.35183 34013 ft 443 kts 354°
2026-04-26 15:20 47.67060 11.35056 34329 ft 441 kts 353°
2026-04-26 15:20 47.70128 11.34864 34614 ft 440 kts 353°
2026-04-26 15:20 47.73187 11.34640 34881 ft 439 kts 353°
2026-04-26 15:21 47.76236 11.34406 35160 ft 439 kts 353°
2026-04-26 15:21 47.79286 11.34174 35412 ft 439 kts 353°
2026-04-26 15:21 47.82334 11.33957 35670 ft 438 kts 353°
2026-04-26 15:21 47.85385 11.33753 35916 ft 438 kts 353°
2026-04-26 15:22 47.88397 11.33557 36150 ft 438 kts 353°
2026-04-26 15:22 47.91433 11.33359 36211 ft 435 kts 353°
2026-04-26 15:22 47.97460 11.32977 36220 ft 432 kts 353°
2026-04-26 15:23 48.03471 11.32590 36220 ft 432 kts 353°
2026-04-26 15:23 48.09476 11.32190 36230 ft 432 kts 353°
2026-04-26 15:24 48.14469 11.31849 36219 ft 432 kts 353°
2026-04-26 15:24 48.20479 11.31441 36220 ft 432 kts 353°
2026-04-26 15:25 48.26491 11.31050 36216 ft 432 kts 353°
2026-04-26 15:25 48.32462 11.30663 36213 ft 432 kts 353°
2026-04-26 15:26 48.38463 11.30267 36210 ft 432 kts 353°
2026-04-26 15:26 48.44467 11.29865 36207 ft 431 kts 353°
2026-04-26 15:27 48.50465 11.29465 36208 ft 432 kts 353°
2026-04-26 15:27 48.56479 11.29065 36218 ft 432 kts 354°
2026-04-26 15:28 48.62487 11.28659 36218 ft 432 kts 353°
2026-04-26 15:28 48.68495 11.28258 36217 ft 432 kts 354°
2026-04-26 15:29 48.74511 11.27861 36215 ft 432 kts 354°
2026-04-26 15:30 48.86489 11.27037 36219 ft 431 kts 354°
2026-04-26 15:30 48.92491 11.26620 36222 ft 432 kts 354°
2026-04-26 15:31 49.01502 11.26011 36238 ft 432 kts 354°
2026-04-26 15:32 49.09496 11.25479 36233 ft 432 kts 354°
2026-04-26 15:32 49.16515 11.24994 36241 ft 432 kts 354°
2026-04-26 15:33 49.22494 11.24574 36256 ft 432 kts 354°
2026-04-26 15:33 49.28502 11.24163 36258 ft 432 kts 354°
2026-04-26 15:34 49.34500 11.23756 36254 ft 431 kts 354°
2026-04-26 15:34 49.40505 11.23344 36252 ft 432 kts 353°
2026-04-26 15:35 49.46508 11.22916 36256 ft 431 kts 354°
2026-04-26 15:35 49.52504 11.22497 36256 ft 431 kts 354°
2026-04-26 15:36 49.58497 11.22081 36256 ft 432 kts 354°
2026-04-26 15:36 49.64494 11.21664 36259 ft 431 kts 354°
2026-04-26 15:37 49.70485 11.21243 36265 ft 431 kts 354°
2026-04-26 15:37 49.76435 11.20823 36260 ft 431 kts 354°
2026-04-26 15:38 49.82421 11.20407 36249 ft 431 kts 354°
2026-04-26 15:38 49.88415 11.19978 36268 ft 431 kts 353°
2026-04-26 15:39 49.94405 11.19550 36280 ft 431 kts 354°
2026-04-26 15:39 49.99429 11.19199 36281 ft 431 kts 354°
2026-04-26 15:40 50.06397 11.18711 36273 ft 431 kts 354°
2026-04-26 15:40 50.12377 11.18280 36289 ft 431 kts 353°
2026-04-26 15:41 50.18369 11.17840 36279 ft 430 kts 354°
2026-04-26 15:41 50.24338 11.17416 36278 ft 429 kts 354°
2026-04-26 15:42 50.30314 11.16992 36276 ft 429 kts 354°
2026-04-26 15:42 50.36236 11.16566 36289 ft 428 kts 354°
2026-04-26 15:43 50.42208 11.16127 36282 ft 428 kts 354°
2026-04-26 15:44 50.51144 11.15475 36281 ft 428 kts 354°
2026-04-26 15:44 50.60025 11.14834 36274 ft 427 kts 354°
2026-04-26 15:45 50.68936 11.14181 36277 ft 427 kts 354°
2026-04-26 15:46 50.77843 11.13526 36281 ft 427 kts 354°
2026-04-26 15:46 50.82779 11.13166 36296 ft 427 kts 354°
2026-04-26 15:47 50.92688 11.12436 36299 ft 427 kts 354°
2026-04-26 15:48 50.98624 11.11995 36299 ft 427 kts 354°
2026-04-26 15:48 51.04528 11.11560 36310 ft 427 kts 354°
2026-04-26 15:49 51.10460 11.11119 36311 ft 426 kts 354°
2026-04-26 15:49 51.16389 11.10678 36310 ft 426 kts 354°
2026-04-26 15:50 51.22320 11.10234 36308 ft 427 kts 354°
2026-04-26 15:50 51.28258 11.09792 36317 ft 426 kts 354°
2026-04-26 15:51 51.34184 11.09350 36310 ft 426 kts 354°
2026-04-26 15:51 51.40073 11.08903 36310 ft 425 kts 354°
2026-04-26 15:52 51.46001 11.08449 35957 ft 427 kts 354°
2026-04-26 15:52 51.48963 11.08222 35504 ft 426 kts 354°
2026-04-26 15:52 51.51921 11.07995 35061 ft 426 kts 354°
2026-04-26 15:52 51.53922 11.07840 34784 ft 426 kts 354°
2026-04-26 15:53 51.57831 11.07547 34337 ft 424 kts 353°
2026-04-26 15:53 51.63711 11.07123 34303 ft 423 kts 354°
2026-04-26 15:54 51.69597 11.06678 34295 ft 422 kts 353°
2026-04-26 15:54 51.75472 11.06226 34296 ft 422 kts 353°
2026-04-26 15:55 51.81342 11.05766 34290 ft 422 kts 353°
2026-04-26 15:55 51.84296 11.05531 33860 ft 426 kts 353°
2026-04-26 15:55 51.87246 11.05272 33306 ft 421 kts 352°
2026-04-26 15:55 51.90145 11.04855 32779 ft 416 kts 350°
2026-04-26 15:56 51.93010 11.04342 32248 ft 411 kts 349°
2026-04-26 15:56 51.95830 11.03770 31736 ft 407 kts 348°
2026-04-26 15:56 51.98627 11.03163 31228 ft 402 kts 348°
2026-04-26 15:56 52.01389 11.02563 30750 ft 398 kts 348°
2026-04-26 15:57 52.04087 11.01979 30242 ft 395 kts 348°
2026-04-26 15:57 52.06814 11.01397 29666 ft 394 kts 348°
2026-04-26 15:57 52.09516 11.00833 29097 ft 389 kts 348°
2026-04-26 15:57 52.11325 11.00454 28717 ft 387 kts 348°
2026-04-26 15:58 52.14869 10.99694 28038 ft 389 kts 349°
2026-04-26 15:58 52.17527 10.99131 27488 ft 384 kts 348°
2026-04-26 15:58 52.20171 10.98591 26976 ft 381 kts 348°
2026-04-26 15:58 52.22795 10.98063 26465 ft 379 kts 349°
2026-04-26 15:59 52.25411 10.97540 25964 ft 377 kts 349°
2026-04-26 15:59 52.28014 10.97011 25499 ft 375 kts 348°
2026-04-26 15:59 52.30583 10.96478 25290 ft 368 kts 348°
2026-04-26 15:59 52.33123 10.95945 25006 ft 368 kts 348°
2026-04-26 16:00 52.35653 10.95410 24520 ft 366 kts 348°
2026-04-26 16:00 52.38177 10.94880 24047 ft 365 kts 348°
2026-04-26 16:00 52.40659 10.94363 23541 ft 364 kts 348°
2026-04-26 16:00 52.43173 10.93841 22993 ft 362 kts 348°
2026-04-26 16:01 52.45673 10.93315 22450 ft 361 kts 348°
2026-04-26 16:01 52.48164 10.92790 21921 ft 360 kts 348°
2026-04-26 16:01 52.50641 10.92267 21421 ft 359 kts 348°
2026-04-26 16:01 52.53116 10.91745 20910 ft 357 kts 348°
2026-04-26 16:02 52.55578 10.91226 20410 ft 356 kts 348°
2026-04-26 16:02 52.58029 10.90710 19915 ft 354 kts 349°
2026-04-26 16:02 52.60446 10.90198 19435 ft 353 kts 349°
2026-04-26 16:02 52.62089 10.89850 19112 ft 352 kts 349°
2026-04-26 16:03 52.65300 10.89168 18469 ft 350 kts 349°
2026-04-26 16:03 52.67693 10.88528 17925 ft 346 kts 342°
2026-04-26 16:03 52.69998 10.87435 17402 ft 344 kts 340°
2026-04-26 16:03 52.72295 10.86322 16872 ft 344 kts 340°
2026-04-26 16:04 52.74583 10.85206 16361 ft 343 kts 341°
2026-04-26 16:04 52.76913 10.84071 15868 ft 353 kts 341°
2026-04-26 16:04 52.79278 10.82920 15372 ft 354 kts 341°
2026-04-26 16:04 52.81636 10.81775 14889 ft 353 kts 341°
2026-04-26 16:05 52.83989 10.80634 14398 ft 351 kts 341°
2026-04-26 16:05 52.86325 10.79497 13910 ft 349 kts 341°
2026-04-26 16:05 52.88644 10.78368 13374 ft 346 kts 341°
2026-04-26 16:05 52.90947 10.77244 12847 ft 343 kts 341°
2026-04-26 16:06 52.93228 10.76129 12336 ft 340 kts 342°
2026-04-26 16:06 52.95459 10.75037 11838 ft 337 kts 342°
2026-04-26 16:06 52.97703 10.73931 11395 ft 334 kts 342°
2026-04-26 16:06 52.99926 10.72833 11273 ft 333 kts 342°
2026-04-26 16:07 53.02145 10.71735 11292 ft 333 kts 342°
2026-04-26 16:07 53.04373 10.70638 11293 ft 334 kts 342°
2026-04-26 16:07 53.06611 10.69540 11298 ft 335 kts 342°
2026-04-26 16:07 53.08847 10.68445 11298 ft 335 kts 342°
2026-04-26 16:08 53.11084 10.67346 11291 ft 335 kts 342°
2026-04-26 16:08 53.12566 10.66617 11289 ft 335 kts 342°
2026-04-26 16:08 53.15555 10.65139 11019 ft 333 kts 342°
2026-04-26 16:08 53.17714 10.64071 10534 ft 315 kts 342°
2026-04-26 16:09 53.19767 10.63058 10048 ft 299 kts 342°
2026-04-26 16:09 53.21718 10.62091 9508 ft 287 kts 342°
2026-04-26 16:09 53.23595 10.61161 8993 ft 276 kts 342°
2026-04-26 16:09 53.25387 10.60271 8498 ft 271 kts 342°
2026-04-26 16:10 53.27185 10.59376 7983 ft 270 kts 342°
2026-04-26 16:10 53.28985 10.58478 7492 ft 269 kts 341°
2026-04-26 16:10 53.30767 10.57591 6993 ft 267 kts 341°
2026-04-26 16:10 53.32549 10.56702 6550 ft 267 kts 341°
2026-04-26 16:11 53.34326 10.55815 6076 ft 267 kts 342°
2026-04-26 16:11 53.36114 10.54919 5600 ft 268 kts 342°
2026-04-26 16:11 53.37883 10.54034 5137 ft 265 kts 342°
2026-04-26 16:11 53.39055 10.53448 4820 ft 265 kts 342°
2026-04-26 16:12 53.40820 10.52566 4359 ft 264 kts 342°
2026-04-26 16:12 53.42577 10.51687 4026 ft 260 kts 342°
2026-04-26 16:12 53.46036 10.49948 3998 ft 260 kts 342°
2026-04-26 16:13 53.47771 10.49079 3999 ft 260 kts 342°
2026-04-26 16:13 53.49500 10.48209 4000 ft 260 kts 342°
2026-04-26 16:13 53.51235 10.47335 3997 ft 260 kts 342°
2026-04-26 16:13 53.52969 10.46463 4000 ft 260 kts 342°
2026-04-26 16:14 53.54703 10.45594 4003 ft 260 kts 342°
2026-04-26 16:14 53.56434 10.44719 4000 ft 260 kts 342°
2026-04-26 16:14 53.59896 10.42965 4003 ft 260 kts 342°
2026-04-26 16:15 53.61624 10.42089 4004 ft 259 kts 342°
2026-04-26 16:15 53.63355 10.41215 4000 ft 260 kts 342°
2026-04-26 16:15 53.65084 10.40341 4000 ft 259 kts 342°
2026-04-26 16:16 53.68571 10.38866 4004 ft 260 kts 356°
2026-04-26 16:16 53.70297 10.39448 4000 ft 248 kts 27°
2026-04-26 16:16 53.71539 10.41244 4001 ft 225 kts 50°
2026-04-26 16:16 53.72439 10.43284 3999 ft 216 kts 54°
2026-04-26 16:17 53.73294 10.45364 4008 ft 214 kts 54°
2026-04-26 16:17 53.74302 10.47173 4005 ft 211 kts 28°
2026-04-26 16:17 53.75698 10.47727 4010 ft 208 kts 352°
2026-04-26 16:17 53.77035 10.46893 4011 ft 206 kts 328°
2026-04-26 16:18 53.78249 10.45623 4003 ft 205 kts 323°
2026-04-26 16:18 53.79362 10.41549 4016 ft 200 kts 268°
2026-04-26 16:19 53.79146 10.36852 4003 ft 201 kts 264°
2026-04-26 16:19 53.79012 10.34491 4003 ft 203 kts 265°
2026-04-26 16:19 53.78315 10.29994 3997 ft 195 kts 233°
2026-04-26 16:20 53.77491 10.28294 4026 ft 179 kts 231°
2026-04-26 16:20 53.75937 10.25110 3851 ft 173 kts 232°
2026-04-26 16:20 53.75170 10.23538 3641 ft 173 kts 231°
2026-04-26 16:21 53.74407 10.21972 3423 ft 172 kts 232°
2026-04-26 16:21 53.73646 10.20419 3194 ft 172 kts 231°
2026-04-26 16:21 53.72883 10.18860 2958 ft 172 kts 232°
2026-04-26 16:21 53.72122 10.17308 2729 ft 170 kts 231°
2026-04-26 16:22 53.71373 10.15780 2491 ft 169 kts 232°
2026-04-26 16:22 53.70626 10.14257 2260 ft 167 kts 232°
2026-04-26 16:22 53.69895 10.12767 2027 ft 161 kts 232°
2026-04-26 16:22 53.69186 10.11322 1819 ft 160 kts 231°
2026-04-26 16:23 53.68476 10.09876 1590 ft 159 kts 231°
2026-04-26 16:23 53.67772 10.08444 1373 ft 158 kts 232°
2026-04-26 16:23 53.67071 10.07018 1158 ft 154 kts 230°
2026-04-26 16:23 53.66396 10.05647 945 ft 148 kts 232°
2026-04-26 16:24 53.65762 10.04358 756 ft 139 kts 232°
2026-04-26 16:24 53.65151 10.03116 582 ft 137 kts 232°
2026-04-26 16:24 53.64545 10.01887 393 ft 136 kts 232°
2026-04-26 16:24 53.63941 10.00661 208 ft 135 kts 233°
2026-04-26 16:25 53.63350 9.99461 57 ft 131 kts 233°
2026-04-26 16:25 53.62855 9.98439 53 ft 89 kts 230°
2026-04-26 16:25 53.62566 9.97852 52 ft 39 kts 230°
2026-04-26 16:25 53.62434 9.97593 50 ft 30 kts 230°
2026-04-26 16:26 53.62309 9.97384 54 ft 19 kts 200°
2026-04-26 16:26 53.62207 9.97417 50 ft 14 kts 139°
2026-04-26 16:26 53.62179 9.97516 51 ft 0 kts 95°
2026-04-26 16:26 53.62179 9.97517 51 ft 1 kts 95°
2026-04-26 16:27 53.62182 9.97554 51 ft 4 kts 78°
2026-04-26 16:27 53.62190 9.97597 51 ft 4 kts 68°
2026-04-26 16:27 53.62205 9.97637 48 ft 8 kts 55°
2026-04-26 16:27 53.62275 9.97783 50 ft 20 kts 51°
2026-04-26 16:28 53.62369 9.97969 51 ft 22 kts 49°
2026-04-26 16:28 53.62485 9.98157 51 ft 24 kts 41°
2026-04-26 16:28 53.62602 9.98376 51 ft 26 kts 50°
2026-04-26 16:28 53.62724 9.98618 51 ft 28 kts 50°
2026-04-26 16:29 53.62848 9.98872 51 ft 25 kts 51°
2026-04-26 16:29 53.62945 9.99070 51 ft 19 kts 50°
2026-04-26 16:29 53.62984 9.99147 51 ft 0 kts 50°
2026-04-26 16:31 53.63007 9.99193 50 ft 10 kts 51°
2026-04-26 16:31 53.63048 9.99283 49 ft 8 kts 53°
2026-04-26 16:31 53.63060 9.99310 51 ft 0 kts 54°
2026-04-26 16:35 53.63066 9.99324 51 ft 5 kts 55°
2026-04-26 16:35 53.63087 9.99377 51 ft 6 kts 56°
2026-04-26 16:35 53.63123 9.99468 51 ft 16 kts 56°
2026-04-26 16:36 53.63190 9.99637 48 ft 17 kts 56°
2026-04-26 16:36 53.63249 9.99737 50 ft 11 kts 36°
2026-04-26 16:36 53.63317 9.99841 48 ft 15 kts 49°
2026-04-26 16:36 53.63385 9.99978 51 ft 15 kts 49°
2026-04-26 16:37 53.63428 10.00109 51 ft 12 kts 89°
2026-04-26 16:37 53.63401 10.00217 51 ft 8 kts 88°
2026-04-26 16:37 53.63410 10.00293 51 ft 4 kts 85°
2026-04-26 16:37 53.63411 10.00317 51 ft 1 kts 86°
2026-04-26 16:38 53.63411 10.00319 51 ft 0 kts 86°